Current Version              Previous Version:    01  02  03  04  05  06  07  08  09  10  11  12  13  14  15  16  17  18  19  20  21  22  23  24  25  26  27  28  29  30  
   31  32  33  34  35  36  37  38  39  40  41  42  43  44  45  46  47  48  49  50  51  52  53  54  55  56  57  58  59  60  

[Printable]
041
ASUS44 KFWD 260102
RWRTX
NORTH TEXAS HOURLY WEATHER ROUNDUP
NATIONAL WEATHER SERVICE FORT WORTH TX
ISSUED BY NWS SHREVEPORT LA
700 PM CST TUE NOV 25 2014

NOTE: "FAIR" INDICATES FEW OR NO CLOUDS BELOW 12,000 FEET WITH NO
SIGNIFICANT WEATHER AND/OR OBSTRUCTIONS TO VISIBILITY.

TXZ118-119-260200-
DALLAS/FORT WORTH METROPLEX

CITY           SKY/WX    TMP DP  RH WIND       PRES   REMARKS
DFW AIRPORT    PTCLDY    53  27  36 SW8       30.16S
DALLAS LOVE    FAIR      56  28  34 SW5       30.17S
FTW MEACHAM    PTCLDY    54  29  38 S5        30.16S
DAL-EXECUTIVE  CLEAR     51  26  37 W5        30.16S
FTW-ALLIANCE   PTCLDY    46  30  53 SW5       30.16S
FTW-NAS-JRB    CLEAR     54  29  38 S3        30.20F
FTW-SPINKS     CLEAR     45  30  57 CALM      30.18S
ARLINGTON      CLEAR     46  30  53 CALM      30.17S
ADDISON        CLEAR     55  25  30 CALM      30.17S
$$

TXZ091>094-102>105-117-120-121-131>134-260200-
NORTH CENTRAL TEXAS

CITY           SKY/WX    TMP DP  RH WIND       PRES   REMARKS
SHRMAN/DENISON FAIR      48  28  45 S3        30.16S
DENTON         PTCLDY    47  30  51 S5        30.15F
MCKINNEY       CLEAR     49  27  42 SW3       30.16S
TERRELL        CLEAR     50  29  44 CALM      30.18R
$$

TXZ083>090-098>101-113>116-127>130-139>142-154-155-260200-
WESTERN NORTH TEXAS

CITY           SKY/WX    TMP DP  RH WIND       PRES   REMARKS
WICHITA FALLS  MOCLDY    43  30  60 S10       30.10F WCI  37
ABILENE        CLEAR     48  21  34 S7        30.16R
ABILENE-DYESS  CLEAR     46  23  41 S6        30.15R
MINERAL WELLS  CLEAR     48  29  47 S6        30.14F
STEPHENVILLE   CLEAR     50  25  38 CALM      30.19F
$$

TXZ143>147-156>162-174-175-260200-
CENTRAL TEXAS

CITY           SKY/WX    TMP DP  RH WIND       PRES   REMARKS
WACO           PTCLDY    45  34  65 SW5       30.20R
WACO-MCGREGOR  PTCLDY    52  28  40 S6        30.21R
CORSICANA      CLEAR     50  29  44 SW3       30.20R
TEMPLE         PTCLDY    52  28  40 W3        30.20R
KILLEEN-GRAY   PTCLDY    52  28  39 W3        30.20R
KILLEEN-SKYLRK PTCLDY    48  28  46 CALM      30.19S
FORT HOOD      PTCLDY    53  32  44 CALM      30.20R
$$

TXZ095>097-106>112-122>126-135>138-148>153-164>167-260200-
EAST TEXAS

CITY           SKY/WX    TMP DP  RH WIND       PRES   REMARKS
PARIS          CLEAR     46  27  46 CALM      30.17S
TYLER          CLEAR     53  28  38 CALM      30.18R
LONGVIEW       FAIR      46  37  71 S5        30.17R
JACKSONVILLE   CLEAR     55  28  34 SW3       30.20S
NACOGDOCHES    CLEAR     43  36  75 CALM      30.21R
LUFKIN         CLEAR     49  39  68 CALM      30.21R
$$

SUPPLEMENTAL OBSERVATIONS (CENTRAL)

CITY           SKY/WX    TMP DP  RH WIND       PRES   REMARKS
$$

SUPPLEMENTAL OBSERVATIONS (WEST)

CITY           SKY/WX    TMP DP  RH WIND       PRES   REMARKS
$$

SUPPLEMENTAL OBSERVATIONS (EAST)

CITY           SKY/WX    TMP DP  RH WIND       PRES   REMARKS
$$

SUPPLEMENTAL OBSERVATIONS ARE A COLLECTION OF AUTOMATED INSTRUMENTS
THAT ARE MAINTAINED BY A VARIETY OF FEDERAL AND STATE AGENCIES.
CERTAIN ELEMENTS...SUCH AS HUMIDITY VALUES AND SUSTAINED WIND
SPEEDS...MAY BE ESTIMATED.